Change the Weather History Date:

Monday, July 8, 2013

  Actual Average Record
Temperature  
Mean Temperature 71 °F 70 °F  
Max Temperature 80 °F 81 °F 96 °F (2012)
Min Temperature 62 °F 59 °F 41 °F (1984)
Degree Days  
Heating Degree Days 0 1  
Month to date heating degree days 0 8  
Since 1 June heating degree days 12 63  
Since 1 July heating degree days 0 8  
Cooling Degree Days 6 5  
Month to date cooling degree days 68 40  
Year to date cooling degree days 190 155  
Since 1 June cooling degree days 165 132  
Growing Degree Days 21 (Base 50)    
Moisture  
Dew Point 63 °F    
Average Humidity 78    
Maximum Humidity 93    
Minimum Humidity 62    
Precipitation  
Precipitation 0.24 in 0.18 in 3.71 in (1935)
Month to date precipitation 1.17 1.41  
Year to date precipitation 21.73 25.02  
Snow  
Snow 0.00 in - - ()
Month to date snowfall 0.0  
Since 1 September snowfall 77.5  
Snow Depth 0.00 in    
Sea Level Pressure  
Sea Level Pressure 30.19 in    
Wind  
Wind Speed 3 mph (WSW)    
Max Wind Speed 13 mph    
Max Gust Speed 16 mph    
Visibility 10 miles    
Events Rain    
T = Trace of Precipitation, MM = Missing Value Source: NWS Daily Summary

Daily Weather History Graph

Daily Weather History Graph

Search for Another Location

Airport or City:

Trip Planner

Search our weather history database for the weather conditions in past years. The results will help you decide how hot, cold, wet, or windy it might be!

Date:

Astronomy

Jul. 08, 2013 Rise Set
Actual Time 6:01 AM EDT 8:47 PM EDT
Civil Twilight 5:30 AM EDT 9:18 PM EDT
Nautical Twilight 4:50 AM EDT 9:57 PM EDT
Astronomical Twilight 4:05 AM EDT 10:42 PM EDT
Moon 6:28 AM EDT (7/8) 8:49 PM EDT (7/8)
Length of Visible Light 15h 48m
Length of Day
14h 45m
New Moon, 0% of the Moon is Illuminated
Jul 8
New Moon
Jul 15
First Quarter
Jul 22
Full
Jul 29
Last Quarter
Aug 6
New

Hourly Weather History & Observations

Time (EDT) Temp. Dew Point Humidity Pressure Visibility Wind Dir Wind Speed Gust Speed Precip Events Conditions
12:51 AM 69.1 °F 63.0 °F 81% 30.15 in 10.0 mi Calm Calm - N/A   Overcast
1:20 AM 64.4 °F 62.6 °F 94% 30.18 in 10.0 mi Calm Calm - N/A   Scattered Clouds
1:43 AM 64.4 °F 62.6 °F 94% 30.18 in 10.0 mi Calm Calm - N/A   Mostly Cloudy
1:51 AM 66.0 °F 63.0 °F 90% 30.17 in 10.0 mi Calm Calm - N/A   Mostly Cloudy
2:51 AM 66.0 °F 64.0 °F 93% 30.16 in 10.0 mi Calm Calm - N/A   Overcast
3:51 AM 66.9 °F 63.0 °F 87% 30.15 in 10.0 mi SSE 3.5 mph - N/A   Mostly Cloudy
4:47 AM 64.4 °F 62.6 °F 94% 30.18 in 10.0 mi SSE 4.6 mph - 0.13 in Rain Light Rain
4:51 AM 64.9 °F 62.1 °F 90% 30.16 in 10.0 mi Calm Calm - 0.13 in   Overcast
5:51 AM 64.0 °F 62.1 °F 93% 30.17 in 10.0 mi Calm Calm - N/A   Mostly Cloudy
6:51 AM 62.1 °F 61.0 °F 96% 30.18 in 10.0 mi Calm Calm - N/A   Scattered Clouds
7:35 AM 64.4 °F 60.8 °F 88% 30.21 in 10.0 mi Calm Calm - N/A   Scattered Clouds
7:51 AM 64.9 °F 61.0 °F 87% 30.19 in 10.0 mi Calm Calm - N/A   Scattered Clouds
8:29 AM 64.4 °F 60.8 °F 88% 30.22 in 10.0 mi SSE 3.5 mph - N/A   Mostly Cloudy
8:51 AM 66.0 °F 62.1 °F 87% 30.20 in 10.0 mi Calm Calm - N/A   Mostly Cloudy
9:01 AM 66.2 °F 60.8 °F 83% 30.22 in 10.0 mi Calm Calm - N/A   Mostly Cloudy
9:28 AM 66.2 °F 60.8 °F 83% 30.23 in 10.0 mi Calm Calm - N/A   Mostly Cloudy
9:51 AM 66.0 °F 62.1 °F 87% 30.21 in 10.0 mi SE 3.5 mph - N/A   Overcast
10:51 AM 66.0 °F 63.0 °F 90% 30.22 in 6.0 mi Calm Calm - 0.11 in Rain Light Rain
11:04 AM 68.0 °F 64.4 °F 88% 30.24 in 10.0 mi Calm Calm - 0.00 in   Overcast
11:51 AM 72.0 °F 64.9 °F 78% 30.20 in 10.0 mi Calm Calm - 0.00 in   Overcast
12:33 PM 73.4 °F 62.6 °F 69% 30.23 in 10.0 mi West 6.9 mph - N/A   Overcast
12:51 PM 73.0 °F 62.1 °F 68% 30.21 in 10.0 mi WNW 9.2 mph - N/A   Overcast
1:51 PM 77.0 °F 64.0 °F 64% 30.19 in 10.0 mi SW 8.1 mph - N/A   Overcast
2:51 PM 78.1 °F 64.0 °F 62% 30.17 in 10.0 mi NW 6.9 mph - N/A   Mostly Cloudy
3:51 PM 79.0 °F 64.0 °F 60% 30.15 in 10.0 mi WNW 6.9 mph - N/A   Partly Cloudy
4:51 PM 79.0 °F 64.0 °F 60% 30.15 in 10.0 mi WNW 8.1 mph - N/A   Mostly Cloudy
5:51 PM 77.0 °F 64.0 °F 64% 30.15 in 10.0 mi NW 4.6 mph - N/A   Overcast
6:51 PM 75.9 °F 64.0 °F 67% 30.16 in 10.0 mi Variable 4.6 mph - 0.00 in   Scattered Clouds
7:38 PM 75.2 °F 64.4 °F 69% 30.18 in 10.0 mi Calm Calm - N/A   Overcast
7:51 PM 73.0 °F 64.9 °F 76% 30.16 in 10.0 mi Calm Calm - N/A   Mostly Cloudy
8:51 PM 69.1 °F 66.0 °F 90% 30.18 in 10.0 mi Calm Calm - N/A   Scattered Clouds
9:23 PM 69.8 °F 66.2 °F 88% 30.20 in 10.0 mi Calm Calm - N/A   Mostly Cloudy
9:31 PM 69.8 °F 66.2 °F 88% 30.20 in 10.0 mi Calm Calm - N/A   Mostly Cloudy
9:51 PM 68.0 °F 64.9 °F 90% 30.19 in 10.0 mi Calm Calm - N/A   Clear
10:51 PM 66.9 °F 64.9 °F 93% 30.19 in 10.0 mi Calm Calm - N/A   Clear
11:51 PM 66.0 °F 64.0 °F 93% 30.19 in 7.0 mi Calm Calm - N/A   Clear